Location: Charlotte
(35.2269°N, 80.8433°W)
Time: 00:18:08
(UTC-04:00)

ISS - Visible Passes

Search period start: 02 September 2014 00:00
Search period end: 12 September 2014 00:00
Orbit: 414 x 419 km, 51.6° (Epoch: 01 September)

Date Brightness Start Highest point End Pass type
(mag) Time Alt. Az. Time Alt. Az. Time Alt. Az.
08 Sep -0.5 06:32:18 10° S 06:34:36 18° SE 06:36:54 10° E visible
10 Sep -2.8 06:30:25 10° SW 06:33:41 59° SE 06:36:58 10° NE visible
11 Sep -1.6 05:43:04 16° S 05:45:02 29° SE 05:47:59 10° ENE visible
